Location: Ladrillo (historical)
(32.8195°N, 117.2231°W)
Time: 03:42:52
(UTC+00:00)

CZ-4B R/B - Pass Details

Date: 29 October 2020
Orbit: 495 x 647 km, 97.8° (Epoch: 26 November)

Event Time Altitude Azimuth Distance (km) Brightness Sun altitude
Rises 12:56:40 0° 3° (N) 2,817 7.4 -14.8°
Reaches altitude 10° 12:58:57 10° 356° (N) 1,886 6.4 -14.4°
Maximum altitude 13:02:48 41° 286° (WNW) 811 4.2 -13.6°
Drops below altitude 10° 13:06:26 10° 216° (SW) 1,790 6.2 -12.8°
Sets 13:08:34 0° 209° (SSW) 2,653 7.1 -12.4°
